AirNav   Everest Fuels
 
 1020 users online  

D20 Yale Airport
Yale, Michigan, USA

GOING TO YALE?


FAA INFORMATION EFFECTIVE 16 JULY 2020

Location

FAA Identifier: D20
Lat/Long: 43-06-39.7850N 082-47-12.1850W
43-06.663083N 082-47.203083W
43.1110514,-82.7867181
(estimated)
Elevation: 815 ft. / 248 m (estimated)
Variation: 06W (1985)
From city: 1 mile SE of YALE, MI
Time zone: UTC -4 (UTC -5 during Standard Time)
Zip code: 48097

Airport Operations

Airport use: Open to the public
Activation date: 07/1948
Control tower: no
ARTCC: CLEVELAND CENTER
FSS: LANSING FLIGHT SERVICE STATION
NOTAMs facility: LAN (NOTAM-D service available)
Attendance: IREG
Wind indicator: yes
Segmented circle: yes

Airport Communications

CTAF: 122.9
WX AWOS-3 at PHN (16 nm SE): 118.375 (810-364-7787)

Airport Services

Parking: tiedowns
Airframe service: NONE
Bottled oxygen: NONE
Bulk oxygen: NONE

Runway Information

Runway 9/27

Dimensions: 2300 x 90 ft. / 701 x 27 m
Surface: turf, in good condition
SOFT IN SPRING.
RUNWAY 9  RUNWAY 27
Latitude: 43-06.656500N43-06.669667N
Longitude: 082-47.461333W082-46.944833W
Elevation: 815.0 ft.802.0 ft.
Traffic pattern: leftleft
Runway heading: 094 magnetic, 088 true274 magnetic, 268 true
Displaced threshold: 400 ft.500 ft.
Runway end identifier lights: nono
Touchdown point: yes, no lightsyes, no lights
Obstructions: 15 ft. road, 30 ft. from runway, 2:1 slope to clear
APCH RATIO 27:1 AT DSPLCD THLD; +25 FT PLINE 720 FT DSTC.
15 ft. brush, 34 ft. from runway, 45 ft. left and right of centerline, 2:1 slope to clear
APCH RATIO 25:1 AT DSPLCD THLD; +68 FT TREES 1700 FT DSTC.

Airport Ownership and Management from official FAA records

Ownership: Privately-owned
Owner: JERRY L. NORRIS
7381 BROCKWAY RD
YALE, MI 48097
Phone 810-387-2173
Manager: JERRY L. NORRIS
7381 BROCKWAY RD
YALE, MI 48097
Phone 810-387-2173

Airport Operational Statistics

Aircraft based on the field: 1
Single engine airplanes: 1
    
Aircraft operations: 100/year *
100% transient general aviation
* for 12-month period ending 31 December 2017

Additional Remarks

A30A-09 +25 FT PLINE 345 FT DIST.
RWY 09/27 & DSPLCD THRS MKD WITH CONES.
FOR CD CTC SELFRIDGE APCH AT 586-239-5706, WHEN APCH CLSD CTC CLEVELAND ARTCC AT 440-774-0224, IF UNA CTC 440-774-0490.

Instrument Procedures

There are no published instrument procedures at D20.

Some nearby airports with instrument procedures:

KPHN - St Clair County International Airport (16 nm SE)
77G - Marlette Township Airport (18 nm NW)
D98 - Romeo State Airport (21 nm SW)
D95 - Dupont-Lapeer Airport (21 nm W)
57D - Ray Community Airport (23 nm S)
 
Loc | Ops | Rwys | IFR | FBO | Links
Com | Nav | Svcs | Stats | Notes
Area around D20 (Yale Airport)
 
Road maps at: MapQuest Bing Google
 
Aerial photo
WARNING: Photo may not be current or correct
Aerial photo of D20 (Yale Airport)
Photo by Katie D.
Photo taken 09-Jul-2009
looking East.

Do you have a better or more recent aerial photo of Yale Airport that you would like to share? If so, please send us your photo.

 
Sectional chart

 
Airport distance calculator
Flying to Yale Airport? Find the distance to fly.

From to D20

Sunrise and sunset
Times for 04-Aug-2020
 Local
(UTC-4)
 Zulu
(UTC)
Morning civil twilight05:5509:55
Sunrise06:2710:27
Sunset20:4700:47
Evening civil twilight21:1901:19

Current date and time
Zulu (UTC)  05-Aug-2020 02:14:19
Local (UTC-4)  04-Aug-2020 22:14:19
 
METAR
KPHN 
17nm SE 
050155Z AUTO 31003KT 10SM OVC075 16/15 A2999 RMK AO2
KD95 
21nm W 
050155Z AUTO 00000KT 10SM SCT022 BKN100 16/16 A3001 RMK AO2 T01600156
CYZR 
22nm E 
050204Z AUTO 32009G17KT 9SM SCT021 BKN027 BKN033 OVC100 18/15 A2997 RMK SLP151 DENSITY ALT 1000FT
KMTC 
30nm S 
050156Z 29003KT 10SM FEW025 BKN075 17/17 A2999 RMK AO2A SLP159 T01680168
TAF
CYZR 
22nm E 
041938Z 0420/0502 36012G22KT P6SM SCT015 OVC030 TEMPO 0420/0502 5SM -SHRA BR OVC015 PROB30 0420/0421 2SM TSRA BR BKN008 OVC015CB RMK FCST BASED ON AUTO OBS. NXT FCST WILL BE ISSUED AT 050745Z
NOTAMs
Click for the latest NOTAMs
NOTAMs are issued by the DoD/FAA and will open in a separate window not controlled by AirNav.

 

 
 

Would you like to see your business listed on this page?

 If your business provides an interesting product or service to pilots, flight crews, aircraft, or users of the Yale Airport, you should consider listing it here.  To start the listing process, click on the button below
 
Add a business
 

Other Pages about Yale Airport

Page from the Michigan Airport Directory (PDF)
 
Update a link
 
Copyright © AirNav, LLC. All rights reserved. Privacy Policy  Contact